Skip Page Navigation
NASA JPL Caltech
NASA Logo - Jet Propulsion Laboratory + View the NASA Portal
+ Center for Near-Earth Object Studies
JPL Home Earth Solar System Stars & Galaxies Technology
JPL Solar System Dynamics
BODIES ORBITS EPHEMERIDES TOOLS PHYSICAL DATA DISCOVERY FAQ SITE MAP
IMPORTANT: The SSD Announcement email list is now available. Major changes are coming in the near future, including possible hostname and/or URL changes. To be notified of such changes, subscribe to this email list.

Please visit this page for more details.


JPL Small-Body Database Browser
Search: [ help ]  
379680 (2011 FP27)
Classification: Main-belt Asteroid          SPK-ID: 2379680
Ephemeris | Orbit Diagram | Orbital Elements | Mission Design | Physical Parameters | Discovery Circumstances ]

[ show orbit diagram ]
Orbital Elements at Epoch 2459000.5 (2020-May-31.0) TDB
Reference: JPL 18 (heliocentric ecliptic J2000)
 Element Value Uncertainty (1-sigma)   Units 
e .07136873053611353 6.6007e-08  
a 3.18857452611703 6.4221e-08 au
q 2.961010009968268 2.3308e-07 au
i 11.66425910383051 6.0827e-06 deg
node 91.67468136228182 3.3598e-05 deg
peri 301.6302110336888 5.5659e-05 deg
M 22.67323851496955 4.4173e-05 deg
tp 2458869.520194553051
(2020-Jan-21.02019455)
0.00025438 TDB
period 2079.66453181225
5.69
6.2829e-05
1.72e-07
d
yr
n .1731048419075026 5.2297e-09 deg/d
Q 3.416139042265792 6.8804e-08 au
  Orbit Determination Parameters
   # obs. used (total)      177  
   data-arc span      4906 days (13.43 yr)  
   first obs. used      2006-05-26  
   last obs. used      2019-10-31  
   planetary ephem.      DE431  
   SB-pert. ephem.      SB431-N16  
   condition code      0  
   norm. resid. RMS      .59354  
   source      ORB  
   producer      Otto Matic  
   solution date      2019-Nov-08 12:33:55  

Additional Information
 Earth MOID = 1.98944 au 
 Jupiter MOID = 1.94475 au 
 T_jup = 3.161 
[ show covariance matrix ]

Ephemeris | Orbit Diagram | Orbital Elements | Mission Design | Physical Parameters | Discovery Circumstances ]

Physical Parameter Table
Parameter Symbol Value Units Sigma Reference Notes
absolute magnitude H 15.7   n/a MPO494948  

379680 (2011 FP27)          Discovered 2008-Nov-03 by CSS at Catalina
Reference: Last Updated: 2013-11-20

Alternate Designations
 2011 FP27 = 2008 VO4 = 2010 HN29 
Ephemeris | Orbit Diagram | Orbital Elements | Mission Design | Physical Parameters | Discovery Circumstances ]
ABOUT SSD CREDITS/AWARDS PRIVACY/COPYRIGHT GLOSSARY LINKS
FirstGov 2020-Feb-26 05:16 UT
(server date/time)  
NASA Home Page
Site Manager:   Ryan S. Park
Webmaster  Alan B. Chamberlin